START_TIME,STEP,MOV.,EG07,t_acc.,EG08,t_acc.,EG09,t_acc.,EB05,t_acc.,EBP05,t_acc.
1979-07-19 12:00:22.680 ,0,0,3.,1.2,0.,1.2,0.,1.2,,0.0,,0.0
1979-07-19 12:00:23.880 ,0,0,3.,1.2,0.,1.2,0.,1.2,,0.0,,0.0
1979-07-19 12:00:25.080 ,0,0,0.,1.2,0.,1.2,0.,1.2,,0.0,,0.0
1979-07-19 12:00:26.280 ,0,0,0.,1.2,0.,1.2,0.,1.2,,0.0,,0.0
1979-07-19 12:00:27.480 ,0,0,0.,1.2,0.,1.2,0.,1.2,,0.0,,0.0
1979-07-19 12:00:28.680 ,0,0,1.,1.2,0.,1.2,0.,1.2,,0.0,,0.0
1979-07-19 12:00:29.880 ,0,0,0.,1.2,0.,1.2,0.,1.2,,0.0,,0.0
1979-07-19 12:00:31.080 ,0,0,1.,1.2,1.,1.2,1.,1.2,,0.0,,0.0
1979-07-19 12:00:32.280 ,0,0,2.,1.2,0.,1.2,0.,1.2,,0.0,,0.0
1979-07-19 12:00:33.480 ,0,0,0.,1.2,0.,1.2,0.,1.2,,0.0,,0.0
1979-07-19 12:00:34.680 ,0,0,0.,1.2,0.,1.2,0.,1.2,,0.0,,0.0
1979-07-19 12:00:35.880 ,0,0,1.,1.2,0.,1.2,0.,1.2,,0.0,,0.0
1979-07-19 12:00:37.080 ,0,0,2.,1.2,1.,1.2,0.,1.2,,0.0,,0.0
1979-07-19 12:00:38.280 ,0,0,1.,1.2,1.,1.2,1.,1.2,,0.0,,0.0
1979-07-19 12:00:39.480 ,0,0,0.,1.2,0.,1.2,0.,1.2,,0.0,,0.0
1979-07-19 12:00:40.680 ,0,0,1.,1.2,0.,1.2,0.,1.2,,0.0,,0.0
1979-07-19 12:00:41.880 ,0,0,1.,1.2,0.,1.2,0.,1.2,,0.0,,0.0
1979-07-19 12:00:43.080 ,0,0,1.,1.2,0.,1.2,0.,1.2,,0.0,,0.0
1979-07-19 12:00:44.280 ,0,0,0.,1.2,0.,1.2,0.,1.2,,0.0,,0.0
1979-07-19 12:00:45.480 ,0,0,1.,1.2,0.,1.2,0.,1.2,,0.0,,0.0
1979-07-19 12:00:46.680 ,1,0,1.,1.2,0.,1.2,0.,1.2,,0.0,,0.0
1979-07-19 12:00:47.880 ,1,0,0.,1.2,0.,1.2,0.,1.2,,0.0,,0.0
1979-07-19 12:00:49.080 ,1,0,2.,1.2,0.,1.2,0.,1.2,,0.0,,0.0
1979-07-19 12:00:50.280 ,1,0,1.,1.2,0.,1.2,0.,1.2,,0.0,,0.0
1979-07-19 12:00:51.480 ,1,0,0.,1.2,0.,1.2,0.,1.2,,0.0,,0.0
1979-07-19 12:00:52.680 ,1,0,0.,1.2,0.,1.2,0.,1.2,,0.0,,0.0
1979-07-19 12:00:53.880 ,1,0,4.,1.2,0.,1.2,0.,1.2,,0.0,,0.0
1979-07-19 12:00:55.080 ,1,0,1.,1.2,1.,1.2,0.,1.2,,0.0,,0.0
1979-07-19 12:00:56.280 ,1,0,1.,1.2,0.,1.2,0.,1.2,,0.0,,0.0
1979-07-19 12:00:57.480 ,1,0,2.,1.2,0.,1.2,0.,1.2,,0.0,,0.0
1979-07-19 12:00:58.680 ,1,0,0.,1.2,0.,1.2,0.,1.2,,0.0,,0.0
1979-07-19 12:00:59.880 ,1,0,1.,1.2,0.,1.2,0.,1.2,,0.0,,0.0
1979-07-19 12:01:01.080 ,1,0,2.,1.2,0.,1.2,0.,1.2,,0.0,,0.0
1979-07-19 12:01:02.280 ,1,0,1.,1.2,1.,1.2,0.,1.2,,0.0,,0.0
1979-07-19 12:01:03.480 ,1,0,1.,1.2,1.,1.2,0.,1.2,,0.0,,0.0
1979-07-19 12:01:04.680 ,1,0,0.,1.2,0.,1.2,0.,1.2,,0.0,,0.0
1979-07-19 12:01:05.880 ,1,0,1.,1.2,0.,1.2,0.,1.2,,0.0,,0.0
1979-07-19 12:01:07.080 ,1,0,0.,1.2,0.,1.2,0.,1.2,,0.0,,0.0
1979-07-19 12:01:08.280 ,1,0,0.,1.2,0.,1.2,0.,1.2,,0.0,,0.0
1979-07-19 12:01:09.480 ,1,0,0.,1.2,0.,1.2,0.,1.2,,0.0,,0.0
1979-07-19 12:01:10.680 ,1,0,1.,1.2,0.,1.2,0.,1.2,,0.0,,0.0
1979-07-19 12:01:11.880 ,1,0,0.,1.2,0.,1.2,0.,1.2,,0.0,,0.0
1979-07-19 12:01:13.080 ,1,0,2.,1.2,0.,1.2,0.,1.2,,0.0,,0.0
1979-07-19 12:01:14.280 ,1,0,0.,1.2,0.,1.2,0.,1.2,,0.0,,0.0
1979-07-19 12:01:15.480 ,1,0,1.,1.2,0.,1.2,0.,1.2,,0.0,,0.0
1979-07-19 12:01:16.680 ,1,0,1.,1.2,0.,1.2,0.,1.2,,0.0,,0.0
1979-07-19 12:01:17.880 ,1,0,0.,1.2,0.,1.2,0.,1.2,,0.0,,0.0
1979-07-19 12:01:19.080 ,1,0,3.,1.2,0.,1.2,0.,1.2,,0.0,,0.0
1979-07-19 12:01:20.280 ,1,0,3.,1.2,1.,1.2,1.,1.2,,0.0,,0.0
1979-07-19 12:01:21.480 ,1,0,0.,1.2,0.,1.2,0.,1.2,,0.0,,0.0
1979-07-19 12:01:22.680 ,1,0,0.,1.2,0.,1.2,0.,1.2,,0.0,,0.0
1979-07-19 12:01:23.880 ,1,0,0.,1.2,0.,1.2,0.,1.2,,0.0,,0.0
1979-07-19 12:01:25.080 ,1,0,1.,1.2,0.,1.2,0.,1.2,,0.0,,0.0
1979-07-19 12:01:26.280 ,1,0,0.,1.2,0.,1.2,0.,1.2,,0.0,,0.0
1979-07-19 12:01:27.480 ,1,0,1.,1.2,0.,1.2,0.,1.2,,0.0,,0.0
1979-07-19 12:01:28.680 ,1,0,1.,1.2,0.,1.2,0.,1.2,,0.0,,0.0
1979-07-19 12:01:29.880 ,1,0,1.,1.2,0.,1.2,0.,1.2,,0.0,,0.0
1979-07-19 12:01:31.080 ,1,0,1.,1.2,0.,1.2,0.,1.2,,0.0,,0.0
1979-07-19 12:01:32.280 ,1,0,0.,1.2,0.,1.2,0.,1.2,,0.0,,0.0
1979-07-19 12:01:33.480 ,1,0,0.,1.2,0.,1.2,0.,1.2,,0.0,,0.0
1979-07-19 12:01:34.680 ,2,0,2.,1.2,1.,1.2,0.,1.2,,0.0,,0.0
1979-07-19 12:01:35.880 ,2,0,0.,1.2,0.,1.2,0.,1.2,,0.0,,0.0
1979-07-19 12:01:37.080 ,2,0,0.,1.2,0.,1.2,0.,1.2,,0.0,,0.0
1979-07-19 12:01:38.280 ,2,0,0.,1.2,0.,1.2,0.,1.2,,0.0,,0.0
1979-07-19 12:01:39.480 ,2,0,0.,1.2,0.,1.2,0.,1.2,,0.0,,0.0
1979-07-19 12:01:40.680 ,2,0,0.,1.2,0.,1.2,0.,1.2,,0.0,,0.0
1979-07-19 12:01:41.880 ,2,0,1.,1.2,0.,1.2,0.,1.2,,0.0,,0.0
1979-07-19 12:01:43.080 ,2,0,0.,1.2,0.,1.2,0.,1.2,,0.0,,0.0
1979-07-19 12:01:44.280 ,2,0,1.,1.2,0.,1.2,0.,1.2,,0.0,,0.0
1979-07-19 12:01:45.480 ,2,0,0.,1.2,0.,1.2,0.,1.2,,0.0,,0.0
1979-07-19 12:01:46.680 ,2,0,0.,1.2,0.,1.2,0.,1.2,,0.0,,0.0
1979-07-19 12:01:47.880 ,2,0,0.,1.2,0.,1.2,0.,1.2,,0.0,,0.0
1979-07-19 12:01:49.080 ,2,0,0.,1.2,0.,1.2,0.,1.2,,0.0,,0.0
1979-07-19 12:01:50.280 ,2,0,0.,1.2,0.,1.2,0.,1.2,,0.0,,0.0
1979-07-19 12:01:51.480 ,2,0,1.,1.2,0.,1.2,0.,1.2,,0.0,,0.0
1979-07-19 12:01:52.680 ,2,0,0.,1.2,0.,1.2,0.,1.2,,0.0,,0.0
1979-07-19 12:01:53.880 ,2,0,1.,1.2,0.,1.2,0.,1.2,,0.0,,0.0
1979-07-19 12:01:55.080 ,2,0,2.,1.2,2.,1.2,0.,1.2,,0.0,,0.0
1979-07-19 12:01:56.280 ,2,0,1.,1.2,0.,1.2,0.,1.2,,0.0,,0.0
1979-07-19 12:01:57.480 ,2,0,1.,1.2,1.,1.2,0.,1.2,,0.0,,0.0
1979-07-19 12:01:58.680 ,2,0,0.,1.2,0.,1.2,0.,1.2,,0.0,,0.0
1979-07-19 12:01:59.880 ,2,0,1.,1.2,0.,1.2,0.,1.2,,0.0,,0.0
1979-07-19 12:02:01.080 ,2,0,0.,1.2,0.,1.2,0.,1.2,,0.0,,0.0
1979-07-19 12:02:02.280 ,2,0,1.,1.2,1.,1.2,0.,1.2,,0.0,,0.0
1979-07-19 12:02:03.480 ,2,0,0.,1.2,0.,1.2,0.,1.2,,0.0,,0.0
1979-07-19 12:02:04.680 ,2,0,0.,1.2,0.,1.2,0.,1.2,,0.0,,0.0
1979-07-19 12:02:05.880 ,2,0,2.,1.2,1.,1.2,1.,1.2,,0.0,,0.0
1979-07-19 12:02:07.080 ,2,0,1.,1.2,0.,1.2,0.,1.2,,0.0,,0.0
1979-07-19 12:02:08.280 ,2,0,1.,1.2,0.,1.2,0.,1.2,,0.0,,0.0
1979-07-19 12:02:09.480 ,2,0,0.,1.2,0.,1.2,0.,1.2,,0.0,,0.0
1979-07-19 12:02:10.680 ,2,0,0.,1.2,0.,1.2,0.,1.2,,0.0,,0.0
1979-07-19 12:02:11.880 ,2,0,0.,1.2,0.,1.2,0.,1.2,,0.0,,0.0
1979-07-19 12:02:13.080 ,2,0,1.,1.2,0.,1.2,0.,1.2,,0.0,,0.0
1979-07-19 12:02:14.280 ,2,0,0.,1.2,0.,1.2,0.,1.2,,0.0,,0.0
1979-07-19 12:02:15.480 ,2,0,1.,1.2,0.,1.2,0.,1.2,,0.0,,0.0
1979-07-19 12:02:16.680 ,2,0,2.,1.2,0.,1.2,0.,1.2,,0.0,,0.0
1979-07-19 12:02:17.880 ,2,0,3.,1.2,2.,1.2,1.,1.2,,0.0,,0.0
1979-07-19 12:02:19.080 ,2,0,0.,1.2,0.,1.2,0.,1.2,,0.0,,0.0
1979-07-19 12:02:20.280 ,2,0,0.,1.2,0.,1.2,0.,1.2,,0.0,,0.0
1979-07-19 12:02:21.480 ,2,0,0.,1.2,0.,1.2,0.,1.2,,0.0,,0.0
1979-07-19 12:02:22.680 ,3,0,2.,1.2,0.,1.2,0.,1.2,,0.0,,0.0
1979-07-19 12:02:23.880 ,3,0,0.,1.2,0.,1.2,0.,1.2,,0.0,,0.0
1979-07-19 12:02:25.080 ,3,0,1.,1.2,0.,1.2,0.,1.2,,0.0,,0.0
1979-07-19 12:02:26.280 ,3,0,0.,1.2,0.,1.2,0.,1.2,,0.0,,0.0
1979-07-19 12:02:27.480 ,3,0,1.,1.2,0.,1.2,0.,1.2,,0.0,,0.0
1979-07-19 12:02:28.680 ,3,0,0.,1.2,0.,1.2,0.,1.2,,0.0,,0.0
1979-07-19 12:02:29.880 ,3,0,4.,1.2,1.,1.2,1.,1.2,,0.0,,0.0
1979-07-19 12:02:31.080 ,3,0,1.,1.2,0.,1.2,0.,1.2,,0.0,,0.0
1979-07-19 12:02:32.280 ,3,0,1.,1.2,0.,1.2,0.,1.2,,0.0,,0.0
1979-07-19 12:02:33.480 ,3,0,1.,1.2,0.,1.2,0.,1.2,,0.0,,0.0
1979-07-19 12:02:34.680 ,3,0,0.,1.2,0.,1.2,0.,1.2,,0.0,,0.0
1979-07-19 12:02:35.880 ,3,0,1.,1.2,1.,1.2,0.,1.2,,0.0,,0.0
1979-07-19 12:02:37.080 ,3,0,1.,1.2,0.,1.2,0.,1.2,,0.0,,0.0
1979-07-19 12:02:38.280 ,3,0,2.,1.2,0.,1.2,0.,1.2,,0.0,,0.0
1979-07-19 12:02:39.480 ,3,0,0.,1.2,0.,1.2,0.,1.2,,0.0,,0.0
1979-07-19 12:02:40.680 ,3,0,0.,1.2,0.,1.2,0.,1.2,,0.0,,0.0
1979-07-19 12:02:41.880 ,3,0,1.,1.2,0.,1.2,0.,1.2,,0.0,,0.0
1979-07-19 12:02:43.080 ,3,0,0.,1.2,0.,1.2,0.,1.2,,0.0,,0.0
1979-07-19 12:02:44.280 ,3,0,0.,1.2,0.,1.2,0.,1.2,,0.0,,0.0
1979-07-19 12:02:45.480 ,3,0,1.,1.2,0.,1.2,0.,1.2,,0.0,,0.0
1979-07-19 12:02:46.680 ,3,0,2.,1.2,0.,1.2,0.,1.2,,0.0,,0.0
1979-07-19 12:02:47.880 ,3,0,2.,1.2,0.,1.2,0.,1.2,,0.0,,0.0
1979-07-19 12:02:49.080 ,3,0,1.,1.2,0.,1.2,0.,1.2,,0.0,,0.0
1979-07-19 12:02:50.280 ,3,0,2.,1.2,0.,1.2,0.,1.2,,0.0,,0.0
1979-07-19 12:02:51.480 ,3,0,3.,1.2,2.,1.2,1.,1.2,,0.0,,0.0
1979-07-19 12:02:52.680 ,3,0,3.,1.2,1.,1.2,0.,1.2,,0.0,,0.0
1979-07-19 12:02:53.880 ,3,0,0.,1.2,0.,1.2,0.,1.2,,0.0,,0.0
1979-07-19 12:02:55.080 ,3,0,0.,1.2,0.,1.2,0.,1.2,,0.0,,0.0
1979-07-19 12:02:56.280 ,3,0,1.,1.2,0.,1.2,0.,1.2,,0.0,,0.0
1979-07-19 12:02:57.480 ,3,0,3.,1.2,0.,1.2,0.,1.2,,0.0,,0.0
1979-07-19 12:02:58.680 ,3,0,0.,1.2,0.,1.2,0.,1.2,,0.0,,0.0
1979-07-19 12:02:59.880 ,3,0,0.,1.2,0.,1.2,0.,1.2,,0.0,,0.0
1979-07-19 12:03:01.080 ,3,0,1.,1.2,0.,1.2,0.,1.2,,0.0,,0.0
1979-07-19 12:03:02.280 ,3,0,1.,1.2,0.,1.2,0.,1.2,,0.0,,0.0
1979-07-19 12:03:03.480 ,3,0,1.,1.2,0.,1.2,0.,1.2,,0.0,,0.0
1979-07-19 12:03:04.680 ,3,0,1.,1.2,0.,1.2,0.,1.2,,0.0,,0.0
1979-07-19 12:03:05.880 ,3,0,1.,1.2,0.,1.2,0.,1.2,,0.0,,0.0
1979-07-19 12:03:07.080 ,3,0,0.,1.2,0.,1.2,0.,1.2,,0.0,,0.0
1979-07-19 12:03:08.280 ,3,0,1.,1.2,0.,1.2,0.,1.2,,0.0,,0.0
1979-07-19 12:03:09.480 ,3,0,1.,1.2,0.,1.2,0.,1.2,,0.0,,0.0
1979-07-19 12:03:10.680 ,4,0,0.,1.2,0.,1.2,0.,1.2,,0.0,,0.0
1979-07-19 12:03:11.880 ,4,0,2.,1.2,0.,1.2,0.,1.2,,0.0,,0.0
1979-07-19 12:03:13.080 ,4,0,2.,1.2,0.,1.2,0.,1.2,,0.0,,0.0
1979-07-19 12:03:14.280 ,4,0,0.,1.2,0.,1.2,0.,1.2,,0.0,,0.0
1979-07-19 12:03:15.480 ,4,0,0.,1.2,0.,1.2,0.,1.2,,0.0,,0.0
1979-07-19 12:03:16.680 ,4,0,0.,1.2,0.,1.2,0.,1.2,,0.0,,0.0
1979-07-19 12:03:17.880 ,4,0,0.,1.2,0.,1.2,0.,1.2,,0.0,,0.0
1979-07-19 12:03:19.080 ,4,0,0.,1.2,0.,1.2,0.,1.2,,0.0,,0.0
1979-07-19 12:03:20.280 ,4,0,0.,1.2,0.,1.2,0.,1.2,,0.0,,0.0
1979-07-19 12:03:21.480 ,4,0,3.,1.2,0.,1.2,0.,1.2,,0.0,,0.0
1979-07-19 12:03:22.680 ,4,0,0.,1.2,0.,1.2,0.,1.2,,0.0,,0.0
1979-07-19 12:03:23.880 ,4,0,1.,1.2,0.,1.2,0.,1.2,,0.0,,0.0
1979-07-19 12:03:25.080 ,4,0,2.,1.2,0.,1.2,0.,1.2,,0.0,,0.0
1979-07-19 12:03:26.280 ,4,0,1.,1.2,0.,1.2,0.,1.2,,0.0,,0.0
1979-07-19 12:03:27.480 ,4,0,1.,1.2,0.,1.2,0.,1.2,,0.0,,0.0
1979-07-19 12:03:28.680 ,4,0,1.,1.2,0.,1.2,0.,1.2,,0.0,,0.0
1979-07-19 12:03:29.880 ,4,0,1.,1.2,0.,1.2,0.,1.2,,0.0,,0.0
1979-07-19 12:03:31.080 ,4,0,1.,1.2,0.,1.2,0.,1.2,,0.0,,0.0
1979-07-19 12:03:32.280 ,4,0,0.,1.2,0.,1.2,0.,1.2,,0.0,,0.0
1979-07-19 12:03:33.480 ,4,0,1.,1.2,0.,1.2,0.,1.2,,0.0,,0.0
1979-07-19 12:03:34.680 ,4,0,4.,1.2,0.,1.2,0.,1.2,,0.0,,0.0
1979-07-19 12:03:35.880 ,4,0,1.,1.2,0.,1.2,0.,1.2,,0.0,,0.0
1979-07-19 12:03:37.080 ,4,0,2.,1.2,1.,1.2,0.,1.2,,0.0,,0.0
1979-07-19 12:03:38.280 ,4,0,1.,1.2,0.,1.2,0.,1.2,,0.0,,0.0
1979-07-19 12:03:39.480 ,4,0,0.,1.2,0.,1.2,0.,1.2,,0.0,,0.0
1979-07-19 12:03:40.680 ,4,0,0.,1.2,0.,1.2,0.,1.2,,0.0,,0.0
1979-07-19 12:03:41.880 ,4,0,0.,1.2,0.,1.2,0.,1.2,,0.0,,0.0
1979-07-19 12:03:43.080 ,4,0,1.,1.2,1.,1.2,0.,1.2,,0.0,,0.0
1979-07-19 12:03:44.280 ,4,0,0.,1.2,0.,1.2,0.,1.2,,0.0,,0.0
1979-07-19 12:03:45.480 ,4,0,0.,1.2,0.,1.2,0.,1.2,,0.0,,0.0
1979-07-19 12:03:46.680 ,4,0,2.,1.2,0.,1.2,0.,1.2,,0.0,,0.0
1979-07-19 12:03:47.880 ,4,0,1.,1.2,1.,1.2,0.,1.2,,0.0,,0.0
1979-07-19 12:03:49.080 ,4,0,2.,1.2,1.,1.2,0.,1.2,,0.0,,0.0
1979-07-19 12:03:50.280 ,4,0,0.,1.2,0.,1.2,0.,1.2,,0.0,,0.0
1979-07-19 12:03:51.480 ,4,0,0.,1.2,0.,1.2,0.,1.2,,0.0,,0.0
1979-07-19 12:03:52.680 ,4,0,2.,1.2,1.,1.2,0.,1.2,,0.0,,0.0
1979-07-19 12:03:53.880 ,4,0,1.,1.2,0.,1.2,0.,1.2,,0.0,,0.0
1979-07-19 12:03:55.080 ,4,0,0.,1.2,0.,1.2,0.,1.2,,0.0,,0.0
1979-07-19 12:03:56.280 ,4,0,1.,1.2,0.,1.2,0.,1.2,,0.0,,0.0
1979-07-19 12:03:57.480 ,4,0,1.,1.2,0.,1.2,0.,1.2,,0.0,,0.0
1979-07-19 12:03:58.680 ,5,0,1.,1.2,0.,1.2,0.,1.2,,0.0,,0.0
1979-07-19 12:03:59.880 ,5,0,1.,1.2,0.,1.2,0.,1.2,,0.0,,0.0
1979-07-19 12:04:01.080 ,5,0,2.,1.2,0.,1.2,0.,1.2,,0.0,,0.0
1979-07-19 12:04:02.280 ,5,0,0.,1.2,0.,1.2,0.,1.2,,0.0,,0.0
1979-07-19 12:04:03.480 ,5,0,0.,1.2,0.,1.2,0.,1.2,,0.0,,0.0
1979-07-19 12:04:04.680 ,5,0,3.,1.2,0.,1.2,0.,1.2,,0.0,,0.0
1979-07-19 12:04:05.880 ,5,0,1.,1.2,0.,1.2,0.,1.2,,0.0,,0.0
1979-07-19 12:04:07.080 ,5,0,0.,1.2,0.,1.2,0.,1.2,,0.0,,0.0
1979-07-19 12:04:08.280 ,5,0,1.,1.2,0.,1.2,0.,1.2,,0.0,,0.0
1979-07-19 12:04:09.480 ,5,0,1.,1.2,0.,1.2,0.,1.2,,0.0,,0.0
1979-07-19 12:04:10.680 ,5,0,1.,1.2,0.,1.2,0.,1.2,,0.0,,0.0
1979-07-19 12:04:11.880 ,5,0,2.,1.2,0.,1.2,0.,1.2,,0.0,,0.0
1979-07-19 12:04:13.080 ,5,0,1.,1.2,0.,1.2,0.,1.2,,0.0,,0.0
1979-07-19 12:04:14.280 ,5,0,2.,1.2,0.,1.2,0.,1.2,,0.0,,0.0
1979-07-19 12:04:15.480 ,5,0,1.,1.2,0.,1.2,0.,1.2,,0.0,,0.0
1979-07-19 12:04:16.680 ,5,0,0.,1.2,0.,1.2,0.,1.2,,0.0,,0.0
1979-07-19 12:04:17.880 ,5,0,1.,1.2,0.,1.2,0.,1.2,,0.0,,0.0
1979-07-19 12:04:19.080 ,5,0,0.,1.2,0.,1.2,0.,1.2,,0.0,,0.0
1979-07-19 12:04:20.280 ,5,0,0.,1.2,0.,1.2,0.,1.2,,0.0,,0.0
1979-07-19 12:04:21.480 ,5,0,0.,1.2,0.,1.2,0.,1.2,,0.0,,0.0
1979-07-19 12:04:22.680 ,5,0,0.,1.2,0.,1.2,0.,1.2,,0.0,,0.0
1979-07-19 12:04:23.880 ,5,0,0.,1.2,0.,1.2,0.,1.2,,0.0,,0.0
1979-07-19 12:04:25.080 ,5,0,0.,1.2,0.,1.2,0.,1.2,,0.0,,0.0
1979-07-19 12:04:26.280 ,5,0,1.,1.2,0.,1.2,0.,1.2,,0.0,,0.0
1979-07-19 12:04:27.480 ,5,0,0.,1.2,0.,1.2,0.,1.2,,0.0,,0.0
1979-07-19 12:04:28.680 ,5,0,1.,1.2,0.,1.2,0.,1.2,,0.0,,0.0
1979-07-19 12:04:29.880 ,5,0,1.,1.2,0.,1.2,0.,1.2,,0.0,,0.0
1979-07-19 12:04:31.080 ,5,0,1.,1.2,0.,1.2,0.,1.2,,0.0,,0.0
1979-07-19 12:04:32.280 ,5,0,0.,1.2,0.,1.2,0.,1.2,,0.0,,0.0
1979-07-19 12:04:33.480 ,5,0,1.,1.2,0.,1.2,0.,1.2,,0.0,,0.0
1979-07-19 12:04:34.680 ,5,0,1.,1.2,0.,1.2,0.,1.2,,0.0,,0.0
1979-07-19 12:04:35.880 ,5,0,0.,1.2,0.,1.2,0.,1.2,,0.0,,0.0
1979-07-19 12:04:37.080 ,5,0,1.,1.2,0.,1.2,0.,1.2,,0.0,,0.0
1979-07-19 12:04:38.280 ,5,0,0.,1.2,0.,1.2,0.,1.2,,0.0,,0.0
1979-07-19 12:04:39.480 ,5,0,1.,1.2,0.,1.2,0.,1.2,,0.0,,0.0
1979-07-19 12:04:40.680 ,5,0,0.,1.2,0.,1.2,0.,1.2,,0.0,,0.0
1979-07-19 12:04:41.880 ,5,0,0.,1.2,0.,1.2,0.,1.2,,0.0,,0.0
1979-07-19 12:04:43.080 ,5,0,1.,1.2,1.,1.2,0.,1.2,,0.0,,0.0
1979-07-19 12:04:44.280 ,5,0,1.,1.2,0.,1.2,0.,1.2,,0.0,,0.0
1979-07-19 12:04:45.480 ,5,0,0.,1.2,0.,1.2,0.,1.2,,0.0,,0.0
1979-07-19 12:04:46.680 ,6,0,0.,1.2,0.,1.2,0.,1.2,,0.0,,0.0
1979-07-19 12:04:47.880 ,6,0,0.,1.2,0.,1.2,0.,1.2,,0.0,,0.0
1979-07-19 12:04:49.080 ,6,0,1.,1.2,0.,1.2,0.,1.2,,0.0,,0.0
1979-07-19 12:04:50.280 ,6,0,0.,1.2,0.,1.2,0.,1.2,,0.0,,0.0
1979-07-19 12:04:51.480 ,6,0,0.,1.2,0.,1.2,0.,1.2,,0.0,,0.0
1979-07-19 12:04:52.680 ,6,0,0.,1.2,0.,1.2,0.,1.2,,0.0,,0.0
1979-07-19 12:04:53.880 ,6,0,0.,1.2,0.,1.2,0.,1.2,,0.0,,0.0
1979-07-19 12:04:55.080 ,6,0,1.,1.2,0.,1.2,0.,1.2,,0.0,,0.0
1979-07-19 12:04:56.280 ,6,0,1.,1.2,0.,1.2,0.,1.2,,0.0,,0.0
1979-07-19 12:04:57.480 ,6,0,0.,1.2,0.,1.2,0.,1.2,,0.0,,0.0
1979-07-19 12:04:58.680 ,6,0,0.,1.2,0.,1.2,0.,1.2,,0.0,,0.0
1979-07-19 12:04:59.880 ,6,0,1.,1.2,0.,1.2,0.,1.2,,0.0,,0.0
1979-07-19 12:05:01.080 ,6,0,0.,1.2,0.,1.2,0.,1.2,,0.0,,0.0
1979-07-19 12:05:02.280 ,6,0,1.,1.2,0.,1.2,0.,1.2,,0.0,,0.0
1979-07-19 12:05:03.480 ,6,0,0.,1.2,0.,1.2,0.,1.2,,0.0,,0.0
1979-07-19 12:05:04.680 ,6,0,0.,1.2,0.,1.2,0.,1.2,,0.0,,0.0
1979-07-19 12:05:05.880 ,6,0,0.,1.2,0.,1.2,0.,1.2,,0.0,,0.0
1979-07-19 12:05:07.080 ,6,0,1.,1.2,0.,1.2,0.,1.2,,0.0,,0.0
1979-07-19 12:05:08.280 ,6,0,1.,1.2,0.,1.2,0.,1.2,,0.0,,0.0
1979-07-19 12:05:09.480 ,6,0,0.,1.2,0.,1.2,0.,1.2,,0.0,,0.0
1979-07-19 12:05:10.680 ,6,0,1.,1.2,0.,1.2,0.,1.2,,0.0,,0.0
1979-07-19 12:05:11.880 ,6,0,1.,1.2,0.,1.2,0.,1.2,,0.0,,0.0
1979-07-19 12:05:13.080 ,6,0,0.,1.2,0.,1.2,0.,1.2,,0.0,,0.0
1979-07-19 12:05:14.280 ,6,0,1.,1.2,0.,1.2,0.,1.2,,0.0,,0.0
1979-07-19 12:05:15.480 ,6,0,1.,1.2,0.,1.2,0.,1.2,,0.0,,0.0
1979-07-19 12:05:16.680 ,6,0,0.,1.2,0.,1.2,0.,1.2,,0.0,,0.0
1979-07-19 12:05:17.880 ,6,0,0.,1.2,0.,1.2,0.,1.2,,0.0,,0.0
1979-07-19 12:05:19.080 ,6,0,0.,1.2,0.,1.2,0.,1.2,,0.0,,0.0
1979-07-19 12:05:20.280 ,6,0,0.,1.2,0.,1.2,0.,1.2,,0.0,,0.0
1979-07-19 12:05:21.480 ,6,0,0.,1.2,0.,1.2,0.,1.2,,0.0,,0.0
1979-07-19 12:05:22.680 ,6,0,1.,1.2,0.,1.2,0.,1.2,,0.0,,0.0
1979-07-19 12:05:23.880 ,6,0,0.,1.2,0.,1.2,0.,1.2,,0.0,,0.0
1979-07-19 12:05:25.080 ,6,0,2.,1.2,0.,1.2,0.,1.2,,0.0,,0.0
1979-07-19 12:05:26.280 ,6,0,0.,1.2,0.,1.2,0.,1.2,,0.0,,0.0
1979-07-19 12:05:27.480 ,6,0,1.,1.2,0.,1.2,0.,1.2,,0.0,,0.0
1979-07-19 12:05:28.680 ,6,0,2.,1.2,0.,1.2,0.,1.2,,0.0,,0.0
1979-07-19 12:05:29.880 ,6,0,0.,1.2,0.,1.2,0.,1.2,,0.0,,0.0
1979-07-19 12:05:31.080 ,6,0,0.,1.2,0.,1.2,0.,1.2,,0.0,,0.0
1979-07-19 12:05:32.280 ,6,0,0.,1.2,0.,1.2,0.,1.2,,0.0,,0.0
1979-07-19 12:05:33.480 ,6,0,0.,1.2,0.,1.2,0.,1.2,,0.0,,0.0
1979-07-19 12:05:34.680 ,7,0,2.,1.2,0.,1.2,0.,1.2,,0.0,,0.0
1979-07-19 12:05:35.880 ,7,0,1.,1.2,0.,1.2,0.,1.2,,0.0,,0.0
1979-07-19 12:05:37.080 ,7,0,0.,1.2,0.,1.2,0.,1.2,,0.0,,0.0
1979-07-19 12:05:38.280 ,7,0,0.,1.2,0.,1.2,0.,1.2,,0.0,,0.0
1979-07-19 12:05:39.480 ,7,0,1.,1.2,0.,1.2,0.,1.2,,0.0,,0.0
1979-07-19 12:05:40.680 ,7,0,1.,1.2,0.,1.2,0.,1.2,,0.0,,0.0
1979-07-19 12:05:41.880 ,7,0,0.,1.2,0.,1.2,0.,1.2,,0.0,,0.0
1979-07-19 12:05:43.080 ,7,0,0.,1.2,0.,1.2,0.,1.2,,0.0,,0.0
1979-07-19 12:05:44.280 ,7,0,0.,1.2,0.,1.2,0.,1.2,,0.0,,0.0
1979-07-19 12:05:45.480 ,7,0,0.,1.2,0.,1.2,0.,1.2,,0.0,,0.0
1979-07-19 12:05:46.680 ,7,0,0.,1.2,0.,1.2,0.,1.2,,0.0,,0.0
1979-07-19 12:05:47.880 ,7,0,0.,1.2,0.,1.2,0.,1.2,,0.0,,0.0
1979-07-19 12:05:49.080 ,7,0,1.,1.2,0.,1.2,0.,1.2,,0.0,,0.0
1979-07-19 12:05:50.280 ,7,0,0.,1.2,0.,1.2,0.,1.2,,0.0,,0.0
1979-07-19 12:05:51.480 ,7,0,0.,1.2,0.,1.2,0.,1.2,,0.0,,0.0
1979-07-19 12:05:52.680 ,7,0,0.,1.2,0.,1.2,0.,1.2,,0.0,,0.0
1979-07-19 12:05:53.880 ,7,0,0.,1.2,0.,1.2,0.,1.2,,0.0,,0.0
1979-07-19 12:05:55.080 ,7,0,1.,1.2,1.,1.2,1.,1.2,,0.0,,0.0
1979-07-19 12:05:56.280 ,7,0,0.,1.2,0.,1.2,0.,1.2,,0.0,,0.0
1979-07-19 12:05:57.480 ,7,0,0.,1.2,0.,1.2,0.,1.2,,0.0,,0.0
1979-07-19 12:05:58.680 ,7,0,0.,1.2,0.,1.2,0.,1.2,,0.0,,0.0
1979-07-19 12:05:59.880 ,7,0,1.,1.2,0.,1.2,0.,1.2,,0.0,,0.0
1979-07-19 12:06:01.080 ,7,0,0.,1.2,0.,1.2,0.,1.2,,0.0,,0.0
1979-07-19 12:06:02.280 ,7,0,0.,1.2,0.,1.2,0.,1.2,,0.0,,0.0
1979-07-19 12:06:03.480 ,7,0,1.,1.2,0.,1.2,0.,1.2,,0.0,,0.0
1979-07-19 12:06:04.680 ,7,0,1.,1.2,0.,1.2,0.,1.2,,0.0,,0.0
1979-07-19 12:06:05.880 ,7,0,0.,1.2,0.,1.2,0.,1.2,,0.0,,0.0
1979-07-19 12:06:07.080 ,7,0,0.,1.2,0.,1.2,0.,1.2,,0.0,,0.0
1979-07-19 12:06:08.280 ,7,0,1.,1.2,0.,1.2,0.,1.2,,0.0,,0.0
1979-07-19 12:06:09.480 ,7,0,0.,1.2,0.,1.2,0.,1.2,,0.0,,0.0
1979-07-19 12:06:10.680 ,7,0,0.,1.2,0.,1.2,0.,1.2,,0.0,,0.0
1979-07-19 12:06:11.880 ,7,0,0.,1.2,0.,1.2,0.,1.2,,0.0,,0.0
1979-07-19 12:06:13.080 ,7,0,1.,1.2,0.,1.2,0.,1.2,,0.0,,0.0
1979-07-19 12:06:14.280 ,7,0,0.,1.2,0.,1.2,0.,1.2,,0.0,,0.0
1979-07-19 12:06:15.480 ,7,0,0.,1.2,0.,1.2,0.,1.2,,0.0,,0.0
1979-07-19 12:06:16.680 ,7,0,0.,1.2,0.,1.2,0.,1.2,,0.0,,0.0
1979-07-19 12:06:17.880 ,7,0,0.,1.2,0.,1.2,0.,1.2,,0.0,,0.0
1979-07-19 12:06:19.080 ,7,0,1.,1.2,0.,1.2,0.,1.2,,0.0,,0.0
1979-07-19 12:06:20.280 ,7,0,0.,1.2,0.,1.2,0.,1.2,,0.0,,0.0
1979-07-19 12:06:21.480 ,7,0,0.,1.2,0.,1.2,0.,1.2,,0.0,,0.0
1979-07-19 12:06:22.680 ,7,0,1.,1.2,0.,1.2,0.,1.2,,0.0,,0.0
1979-07-19 12:06:23.880 ,7,0,0.,1.2,0.,1.2,0.,1.2,,0.0,,0.0
1979-07-19 12:06:25.080 ,7,0,0.,1.2,0.,1.2,0.,1.2,,0.0,,0.0
1979-07-19 12:06:26.280 ,7,0,0.,1.2,0.,1.2,0.,1.2,,0.0,,0.0
1979-07-19 12:06:27.480 ,7,0,0.,1.2,0.,1.2,0.,1.2,,0.0,,0.0
1979-07-19 12:06:28.680 ,7,0,1.,1.2,1.,1.2,0.,1.2,,0.0,,0.0
1979-07-19 12:06:29.880 ,7,0,0.,1.2,0.,1.2,0.,1.2,,0.0,,0.0
1979-07-19 12:06:31.080 ,7,0,0.,1.2,0.,1.2,0.,1.2,,0.0,,0.0
1979-07-19 12:06:32.280 ,7,0,0.,1.2,0.,1.2,0.,1.2,,0.0,,0.0
1979-07-19 12:06:33.480 ,7,0,0.,1.2,0.,1.2,0.,1.2,,0.0,,0.0
1979-07-19 12:06:34.680 ,7,0,1.,1.2,1.,1.2,0.,1.2,,0.0,,0.0
1979-07-19 12:06:35.880 ,7,0,1.,1.2,1.,1.2,1.,1.2,,0.0,,0.0
1979-07-19 12:06:37.080 ,7,0,0.,1.2,0.,1.2,0.,1.2,,0.0,,0.0
1979-07-19 12:06:38.280 ,7,0,1.,1.2,1.,1.2,0.,1.2,,0.0,,0.0
1979-07-19 12:06:39.480 ,7,0,1.,1.2,0.,1.2,0.,1.2,,0.0,,0.0
1979-07-19 12:06:40.680 ,7,0,0.,1.2,0.,1.2,0.,1.2,,0.0,,0.0
1979-07-19 12:06:41.880 ,7,0,0.,1.2,0.,1.2,0.,1.2,,0.0,,0.0
1979-07-19 12:06:43.080 ,7,0,1.,1.2,0.,1.2,0.,1.2,,0.0,,0.0
1979-07-19 12:06:44.280 ,7,0,0.,1.2,0.,1.2,0.,1.2,,0.0,,0.0
1979-07-19 12:06:45.480 ,7,0,0.,1.2,0.,1.2,0.,1.2,,0.0,,0.0
1979-07-19 12:06:46.680 ,7,0,0.,1.2,0.,1.2,0.,1.2,,0.0,,0.0
1979-07-19 12:06:47.880 ,7,0,0.,1.2,0.,1.2,0.,1.2,,0.0,,0.0
1979-07-19 12:06:49.080 ,7,0,0.,1.2,0.,1.2,0.,1.2,,0.0,,0.0
1979-07-19 12:06:50.280 ,7,0,0.,1.2,0.,1.2,0.,1.2,,0.0,,0.0
1979-07-19 12:06:51.480 ,7,0,1.,1.2,0.,1.2,0.,1.2,,0.0,,0.0
1979-07-19 12:06:52.680 ,7,0,0.,1.2,0.,1.2,0.,1.2,,0.0,,0.0
1979-07-19 12:06:53.880 ,7,0,0.,1.2,0.,1.2,0.,1.2,,0.0,,0.0
1979-07-19 12:06:55.080 ,7,0,0.,1.2,0.,1.2,0.,1.2,,0.0,,0.0
1979-07-19 12:06:56.280 ,7,0,0.,1.2,0.,1.2,0.,1.2,,0.0,,0.0
1979-07-19 12:06:57.480 ,7,0,0.,1.2,0.,1.2,0.,1.2,,0.0,,0.0
1979-07-19 12:06:58.680 ,7,0,0.,1.2,0.,1.2,0.,1.2,,0.0,,0.0
1979-07-19 12:06:59.880 ,7,0,0.,1.2,0.,1.2,0.,1.2,,0.0,,0.0
1979-07-19 12:07:01.080 ,7,0,0.,1.2,0.,1.2,0.,1.2,,0.0,,0.0
1979-07-19 12:07:02.280 ,7,0,0.,1.2,0.,1.2,0.,1.2,,0.0,,0.0
1979-07-19 12:07:03.480 ,7,0,1.,1.2,0.,1.2,0.,1.2,,0.0,,0.0
1979-07-19 12:07:04.680 ,7,0,0.,1.2,0.,1.2,0.,1.2,,0.0,,0.0
1979-07-19 12:07:05.880 ,7,0,1.,1.2,0.,1.2,0.,1.2,,0.0,,0.0
1979-07-19 12:07:07.080 ,7,0,0.,1.2,0.,1.2,0.,1.2,,0.0,,0.0
1979-07-19 12:07:08.280 ,7,0,0.,1.2,0.,1.2,0.,1.2,,0.0,,0.0
1979-07-19 12:07:09.480 ,7,0,2.,1.2,2.,1.2,1.,1.2,,0.0,,0.0
1979-07-19 12:07:10.680 ,6,0,0.,1.2,0.,1.2,0.,1.2,,0.0,,0.0
1979-07-19 12:07:11.880 ,6,0,0.,1.2,0.,1.2,0.,1.2,,0.0,,0.0
1979-07-19 12:07:13.080 ,6,0,0.,1.2,0.,1.2,0.,1.2,,0.0,,0.0
1979-07-19 12:07:14.280 ,6,0,0.,1.2,0.,1.2,0.,1.2,,0.0,,0.0
1979-07-19 12:07:15.480 ,6,0,0.,1.2,0.,1.2,0.,1.2,,0.0,,0.0
1979-07-19 12:07:16.680 ,6,0,0.,1.2,0.,1.2,0.,1.2,,0.0,,0.0
1979-07-19 12:07:17.880 ,6,0,1.,1.2,0.,1.2,0.,1.2,,0.0,,0.0
1979-07-19 12:07:19.080 ,6,0,0.,1.2,0.,1.2,0.,1.2,,0.0,,0.0
1979-07-19 12:07:20.280 ,6,0,0.,1.2,0.,1.2,0.,1.2,,0.0,,0.0
1979-07-19 12:07:21.480 ,6,0,1.,1.2,0.,1.2,0.,1.2,,0.0,,0.0
1979-07-19 12:07:22.680 ,6,0,2.,1.2,0.,1.2,0.,1.2,,0.0,,0.0
1979-07-19 12:07:23.880 ,6,0,1.,1.2,0.,1.2,0.,1.2,,0.0,,0.0
1979-07-19 12:07:25.080 ,6,0,0.,1.2,0.,1.2,0.,1.2,,0.0,,0.0
1979-07-19 12:07:26.280 ,6,0,0.,1.2,0.,1.2,0.,1.2,,0.0,,0.0
1979-07-19 12:07:27.480 ,6,0,0.,1.2,0.,1.2,0.,1.2,,0.0,,0.0
1979-07-19 12:07:28.680 ,6,0,2.,1.2,0.,1.2,0.,1.2,,0.0,,0.0
1979-07-19 12:07:29.880 ,6,0,0.,1.2,0.,1.2,0.,1.2,,0.0,,0.0
1979-07-19 12:07:31.080 ,6,0,1.,1.2,0.,1.2,0.,1.2,,0.0,,0.0
1979-07-19 12:07:32.280 ,6,0,2.,1.2,0.,1.2,0.,1.2,,0.0,,0.0
1979-07-19 12:07:33.480 ,6,0,2.,1.2,0.,1.2,0.,1.2,,0.0,,0.0
1979-07-19 12:07:34.680 ,6,0,1.,1.2,1.,1.2,0.,1.2,,0.0,,0.0
1979-07-19 12:07:35.880 ,6,0,0.,1.2,0.,1.2,0.,1.2,,0.0,,0.0
1979-07-19 12:07:37.080 ,6,0,2.,1.2,0.,1.2,0.,1.2,,0.0,,0.0
1979-07-19 12:07:38.280 ,6,0,0.,1.2,0.,1.2,0.,1.2,,0.0,,0.0
1979-07-19 12:07:39.480 ,6,0,1.,1.2,0.,1.2,0.,1.2,,0.0,,0.0
1979-07-19 12:07:40.680 ,6,0,0.,1.2,0.,1.2,0.,1.2,,0.0,,0.0
1979-07-19 12:07:41.880 ,6,0,0.,1.2,0.,1.2,0.,1.2,,0.0,,0.0
1979-07-19 12:07:43.080 ,6,0,1.,1.2,0.,1.2,0.,1.2,,0.0,,0.0
1979-07-19 12:07:44.280 ,6,0,1.,1.2,0.,1.2,0.,1.2,,0.0,,0.0
1979-07-19 12:07:45.480 ,6,0,2.,1.2,0.,1.2,0.,1.2,,0.0,,0.0
1979-07-19 12:07:46.680 ,6,0,1.,1.2,0.,1.2,0.,1.2,,0.0,,0.0
1979-07-19 12:07:47.880 ,6,0,1.,1.2,0.,1.2,0.,1.2,,0.0,,0.0
1979-07-19 12:07:49.080 ,6,0,1.,1.2,0.,1.2,0.,1.2,,0.0,,0.0
1979-07-19 12:07:50.280 ,6,0,1.,1.2,1.,1.2,0.,1.2,,0.0,,0.0
1979-07-19 12:07:51.480 ,6,0,1.,1.2,0.,1.2,0.,1.2,,0.0,,0.0
1979-07-19 12:07:52.680 ,6,0,2.,1.2,1.,1.2,0.,1.2,,0.0,,0.0
1979-07-19 12:07:53.880 ,6,0,1.,1.2,1.,1.2,0.,1.2,,0.0,,0.0
1979-07-19 12:07:55.080 ,6,0,0.,1.2,0.,1.2,0.,1.2,,0.0,,0.0
1979-07-19 12:07:56.280 ,6,0,0.,1.2,0.,1.2,0.,1.2,,0.0,,0.0
1979-07-19 12:07:57.480 ,6,0,1.,1.2,1.,1.2,0.,1.2,,0.0,,0.0
1979-07-19 12:07:58.680 ,5,0,0.,1.2,0.,1.2,0.,1.2,,0.0,,0.0
1979-07-19 12:07:59.880 ,5,0,0.,1.2,0.,1.2,0.,1.2,,0.0,,0.0
1979-07-19 12:08:01.080 ,5,0,0.,1.2,0.,1.2,0.,1.2,,0.0,,0.0
1979-07-19 12:08:02.280 ,5,0,2.,1.2,0.,1.2,0.,1.2,,0.0,,0.0
1979-07-19 12:08:03.480 ,5,0,0.,1.2,0.,1.2,0.,1.2,,0.0,,0.0
1979-07-19 12:08:04.680 ,5,0,1.,1.2,1.,1.2,0.,1.2,,0.0,,0.0
1979-07-19 12:08:05.880 ,5,0,2.,1.2,0.,1.2,0.,1.2,,0.0,,0.0
1979-07-19 12:08:07.080 ,5,0,1.,1.2,0.,1.2,0.,1.2,,0.0,,0.0
1979-07-19 12:08:08.280 ,5,0,2.,1.2,0.,1.2,0.,1.2,,0.0,,0.0
1979-07-19 12:08:09.480 ,5,0,2.,1.2,0.,1.2,0.,1.2,,0.0,,0.0
1979-07-19 12:08:10.680 ,5,0,0.,1.2,0.,1.2,0.,1.2,,0.0,,0.0
1979-07-19 12:08:11.880 ,5,0,0.,1.2,0.,1.2,0.,1.2,,0.0,,0.0